Regional Weather Roundup
Issued by NWS

Home | Current Version | Previous Version | Text Only | Print | Product List | Glossary On
Versions: 1 2 3 4 5 6 7 8 9 10 11 12 13 14 15 16 17 18 19 20 21 22 23 24 25 26 27 28 29 30 31 32 33 34 35 36 37 38 39 40 41 42 43 44 45 46 47 48 49 50
481
ASUS44 KJAN 210103
RWRMS

MISSISSIPPI HOURLY WEATHER ROUNDUP
NATIONAL WEATHER SERVICE JACKSON MS
800 PM CDT MON OCT 20 2014

NOTE: "FAIR: INDICATES FEW OR NO CLOUDS BELOW 12,000 FEET WITH NO
SIGNIFICANT WEATHER AND/OR OBSTRUCTIONS TO VISIBILITY.

MSZ001>002-007>008-010>013-018>021-025>028-034>036-210200-
NORTHWEST MISSISSIPPI

CITY           SKY/WX    TMP DP  RH WIND       PRES   REMARKS
CLARKSDALE     MOCLDY    63  55  77 CALM      30.04R
CLEVELAND      FAIR      61  58  88 CALM      30.03R
GREENWOOD      CLEAR     56  53  90 CALM      30.03S
GREENVILLE     CLEAR     62  53  72 CALM      30.03S
GRENADA          N/A    N/A N/A N/A MISG        N/A
OLIVE BRANCH   CLEAR     59  57  94 CALM      30.03R
OXFORD         FAIR      55  54  94 CALM      30.05R
TUNICA         CLEAR     61  54  77 CALM      30.03S
$$

MSZ003>006-009-014>017-022>024-029>033-037>039-210200-
NORTHEAST MISSISSIPPI

CITY           SKY/WX    TMP DP  RH WIND       PRES   REMARKS
COLUMBUS AFB   CLEAR     56  55  93 CALM      30.03R
CORINTH        FAIR      55  54  94 CALM      30.02S
GOLDN TRIANGLE CLEAR     59  48  67 CALM      30.02S
STARKVILLE     FAIR      55  52  88 CALM      30.03S
TUPELO         CLEAR     60  52  74 CALM      30.03R
$$

MSZ040-058-210200-
CENTRAL MISSISSIPPI

CITY           SKY/WX    TMP DP  RH WIND       PRES   REMARKS
JACKSON INTL   PTCLDY    58  52  80 SE3       30.04R
JACKSON HAWKNS CLEAR     64  51  62 CALM      30.04R
MERIDIAN KEY   CLEAR     58  53  84 CALM      30.03R
MERIDIAN NAS   PTCLDY    59  53  80 CALM      30.03S
RAYMOND        FAIR      57  54  88 MISG      30.04R
VICKSBURG      CLEAR     56  53  90 CALM      30.04R
$$

MSZ059>079-210200-
SOUTH MISSISSIPPI

CITY           SKY/WX    TMP DP  RH WIND       PRES   REMARKS
BROOKHAVEN     FAIR      57  54  88 CALM      30.05R
COLUMBIA         N/A    N/A N/A N/A MISG        N/A
HATTIESBURG    MOCLDY    61  55  81 CALM      30.03R
MCCOMB         PTCLDY    60  53  77 CALM      30.03R
NATCHEZ        PTCLDY    61  55  82 CALM      30.04S
PINE BELT      MOCLDY    57  52  82 CALM      30.03S
$$

MSZ080>082-210200-
COASTAL MISSISSIPPI

CITY           SKY/WX    TMP DP  RH WIND       PRES   REMARKS
BAY ST LOUIS   CLEAR     57  54  88 CALM      30.01S
BILOXI         PTCLDY    69  55  61 N1        30.00S
PASCAGOULA     PTCLDY    56  52  86 CALM      30.00S
GULFPORT       CLEAR     63  55  75 CALM      29.99S
$$



USA.gov is the U.S. government's official web portal to all federal, state and local government web resources and services.